Flag for U.S.A. Weather past 2 weeks in Owensboro, Kentucky, U.S.A.

Now
-2 °F

Clear.


Feels Like: -2 °F
Forecast: -3 / 29 °F
Wind: No wind

Location: Owensboro / Daviess

Current Time: Mar 6, 2015 at 3:44:57 AM

Latest Report: Mar 6, 2015 at 2:56 AM


Visibility: 10 mi

Pressure: 30.62 "Hg

Humidity: 82%

Dew point: -6 °F

Location of OwensboroLocation

Historic Weather in Owensboro — Graph

°F

Owensboro temperature yesterday

Maximum temperature yesterday: 24 °F (at 12:56 PM)
Minimum temperature yesterday: 7 °F (at 11:56 PM)
Average temperature yesterday: 18 °F

Past Weeks' High & Low Weather Summary

 TemperatureHumidityPressure
High58 °F (Mar 3, 3:56 PM)100% (Feb 21, 2:56 AM)30.69 "Hg (Feb 21, 2:56 AM)
Low-7 °F (Feb 19, 6:56 AM)39% (Feb 28, 2:56 PM)29.83 "Hg (Mar 3, 3:56 PM)
Average25 °F73%30.30 "Hg
* Reported Feb 19 2:56 AM — Mar 6 2:56 AM, Owensboro, Weather by CustomWeather, © 2015

Note: Actual official high and low records may vary slightly from our data, if they occured in-between our weather recording intervals... More about our weather records

Advertising

Owensboro weather history for previous 24 hours

 ConditionsComfort  
Time TempWeatherWind HumidityBarometerVisibility
2:56 AM
Fri, Mar 6
-2 °FClear.No wind82%30.62 "Hg10 mi
1:56 AM5 °FClear.No wind83%30.62 "Hg10 mi
12:56 AM7 °FClear.5 mph79%30.62 "Hg10 mi
11:56 PM
Thu, Mar 5
7 °FClear.No wind75%30.63 "Hg10 mi
10:56 PM12 °FClear.5 mph67%30.63 "Hg10 mi
9:56 PM13 °FClear.5 mph64%30.63 "Hg10 mi
8:56 PM12 °FClear.5 mph67%30.62 "Hg10 mi
7:56 PM12 °FClear.7 mph67%30.60 "Hg10 mi
6:56 PM13 °FClear.7 mph64%30.61 "Hg10 mi
5:56 PM16 °FClear.7 mph59%30.58 "Hg10 mi
4:56 PM20 °FClear.14 mph54%30.55 "Hg10 mi
3:56 PM21 °FSunny.14 mph55%30.53 "Hg10 mi
2:56 PM22 °FSunny.16 mph50%30.52 "Hg10 mi
1:56 PM24 °FSunny.17 mph57%30.50 "Hg10 mi
12:56 PM24 °FSunny.16 mph55%30.49 "Hg10 mi
11:56 AM22 °FSunny.12 mph65%30.50 "Hg10 mi
10:56 AM22 °FOvercast.13 mph65%30.47 "Hg10 mi
9:56 AM21 °FLight snow. Overcast.10 mph62%30.46 "Hg10 mi
8:56 AM20 °FSunny.6 mph62%30.43 "Hg10 mi
7:56 AM19 °FSunny.6 mph65%30.41 "Hg10 mi
7:03 AM19 °FMostly cloudy.7 mph68%30.39 "Hg10 mi
6:56 AM19 °FLight snow. Mostly cloudy.6 mph68%30.41 "Hg9 mi
5:56 AM18 °FLight snow. Overcast.8 mph74%30.36 "Hg7 mi
5:01 AM19 °FLight snow. Mostly cloudy.8 mph73%30.33 "Hg2 mi
4:56 AM19 °FLight snow. Passing clouds.8 mph74%30.35 "Hg3 mi
3:56 AM18 °FLight snow. Ice fog.6 mph88%30.33 "Hg2 mi
Weather by CustomWeather, © 2015

See weather overviewHow to use our weather pages